^^
Saratoga-Weather Station Historical Data
Daily Summary for July 21, 2020 Units:  English    Metric   Both
Daily Weekly Monthly Yearly Custom
  High: Low: Average:
Temperature: 80.4 °F 49.8 °F 63.3 °F
Dew Point: 51.8 °F 44.8 °F 48 °F
Humidity: 83% 33% 60%
Wind Speed: 5mph 0mph 0.5mph
Wind Gust: 8mph - -
Wind- - SSE
Pressure: 30 in 29.9 in -
Precipitation: 0 in    
Historical Graphs
 
 
Tabular Data for July 21, 2020
Time Temperature Dew Point Pressure Wind Wind Speed Wind Gust Humidity Rainfall Rate (Hourly) solar
00:02 58.6 °F 45.7 °F 30 in Calm     62% 0 in 0 W/m2
00:07 58.3 °F 45.3 °F 30 in Calm     62% 0 in 0 W/m2
00:12 57.9 °F 45.3 °F 30 in Calm     63% 0 in 0 W/m2
00:17 57.7 °F 45.3 °F 30 in Calm     63% 0 in 0 W/m2
00:22 57.6 °F 45.5 °F 30 in Calm     64% 0 in 0 W/m2
00:27 57.4 °F 45.7 °F 30 in Calm     65% 0 in 0 W/m2
00:32 57.2 °F 45.5 °F 30 in Calm     65% 0 in 0 W/m2
00:37 56.8 °F 45.7 °F 30 in Calm     66% 0 in 0 W/m2
00:42 56.8 °F 45.7 °F 30 in Calm     66% 0 in 0 W/m2
00:47 56.7 °F 45.5 °F 30 in Calm     66% 0 in 0 W/m2
00:52 56.5 °F 45.7 °F 30 in Calm     67% 0 in 0 W/m2
00:57 56.5 °F 45.7 °F 30 in Calm     67% 0 in 0 W/m2
01:02 56.1 °F 45.7 °F 30 in Calm     68% 0 in 0 W/m2
01:07 55.9 °F 45.5 °F 30 in Calm     68% 0 in 0 W/m2
01:12 55.8 °F 45.3 °F 30 in Calm     68% 0 in 0 W/m2
01:17 55.6 °F 45.5 °F 30 in Calm     69% 0 in 0 W/m2
01:22 55.6 °F 45.5 °F 30 in Calm     69% 0 in 0 W/m2
01:27 55.6 °F 45.5 °F 30 in Calm     69% 0 in 0 W/m2
01:32 55.6 °F 46 °F 30 in Calm     70% 0 in 0 W/m2
01:37 55.2 °F 45.7 °F 30 in Calm     70% 0 in 0 W/m2
01:42 55 °F 45.9 °F 30 in Calm     71% 0 in 0 W/m2
01:47 55 °F 45.9 °F 30 in Calm     71% 0 in 0 W/m2
01:52 54.9 °F 45.7 °F 30 in Calm     71% 0 in 0 W/m2
01:57 54.7 °F 45.9 °F 30 in Calm   1 mph 72% 0 in 0 W/m2
02:02 54.7 °F 45.9 °F 30 in Calm     72% 0 in 0 W/m2
02:07 54.5 °F 45.7 °F 30 in Calm     72% 0 in 0 W/m2
02:12 54.3 °F 45.5 °F 30 in Calm     72% 0 in 0 W/m2
02:17 54.3 °F 45.5 °F 30 in Calm     72% 0 in 0 W/m2
02:22 54.1 °F 45.7 °F 30 in Calm     73% 0 in 0 W/m2
02:27 54 °F 45.5 °F 30 in Calm   1 mph 73% 0 in 0 W/m2
02:32 54 °F 45.5 °F 30 in South 0.9 mph 1 mph 73% 0 in 0 W/m2
02:37 54 °F 45.5 °F 30 in Calm     73% 0 in 0 W/m2
02:42 54 °F 45.5 °F 30 in Calm     73% 0 in 0 W/m2
02:47 54 °F 45.9 °F 30 in Calm     74% 0 in 0 W/m2
02:52 54 °F 45.9 °F 30 in Calm   1 mph 74% 0 in 0 W/m2
02:57 54 °F 45.9 °F 30 in Calm     74% 0 in 0 W/m2
03:02 54 °F 45.5 °F 30 in Calm     73% 0 in 0 W/m2
03:07 54.1 °F 45.7 °F 30 in Calm     73% 0 in 0 W/m2
03:12 54 °F 45.5 °F 30 in Calm     73% 0 in 0 W/m2
03:17 54 °F 45.5 °F 30 in Calm     73% 0 in 0 W/m2
03:22 53.8 °F 45.7 °F 30 in Calm     74% 0 in 0 W/m2
03:27 53.6 °F 45.5 °F 30 in Calm   1 mph 74% 0 in 0 W/m2
03:32 53.4 °F 45.3 °F 30 in Calm     74% 0 in 0 W/m2
03:37 53.4 °F 45.3 °F 30 in Calm   1 mph 74% 0 in 0 W/m2
03:42 53.4 °F 45.7 °F 30 in Calm   1 mph 75% 0 in 0 W/m2
03:47 53.4 °F 45.7 °F 29.9 in Calm   1 mph 75% 0 in 0 W/m2
03:52 53.2 °F 45.1 °F 29.9 in Calm     74% 0 in 0 W/m2
03:57 53.2 °F 45.5 °F 29.9 in Calm   1 mph 75% 0 in 0 W/m2
04:02 53.1 °F 45.3 °F 29.9 in Calm     75% 0 in 0 W/m2
04:07 52.9 °F 45.1 °F 29.9 in Calm     75% 0 in 0 W/m2
04:12 52.9 °F 45.5 °F 29.9 in Calm     76% 0 in 0 W/m2
04:17 52.7 °F 45.3 °F 29.9 in Calm   1 mph 76% 0 in 0 W/m2
04:23 52.5 °F 45.1 °F 29.9 in Calm     76% 0 in 0 W/m2
04:28 52.5 °F 45.1 °F 29.9 in Calm     76% 0 in 0 W/m2
04:33 52.3 °F 45.3 °F 30 in Calm     77% 0 in 0 W/m2
04:38 52.3 °F 45.3 °F 30 in Calm   1 mph 77% 0 in 0 W/m2
04:43 52.2 °F 45.1 °F 29.9 in Calm     77% 0 in 0 W/m2
04:48 52.2 °F 45.1 °F 29.9 in Calm   1 mph 77% 0 in 0 W/m2
04:53 52 °F 45.3 °F 29.9 in Calm   2 mph 78% 0 in 0 W/m2
04:58 52.3 °F 45.7 °F 30 in South 0.9 mph 2 mph 78% 0 in 0 W/m2
05:03 52.3 °F 45.3 °F 29.9 in Calm   1 mph 77% 0 in 0 W/m2
05:08 52.3 °F 45.7 °F 29.9 in Calm   2 mph 78% 0 in 0 W/m2
05:13 52.3 °F 45.3 °F 29.9 in Calm     77% 0 in 0 W/m2
05:18 52.3 °F 45.3 °F 29.9 in Calm   1 mph 77% 0 in 0 W/m2
05:23 52.3 °F 45.3 °F 29.9 in Calm   1 mph 77% 0 in 0 W/m2
05:28 52.3 °F 45.3 °F 29.9 in Calm     77% 0 in 0 W/m2
05:33 52.3 °F 45.7 °F 29.9 in Calm     78% 0 in 0 W/m2
05:38 52.2 °F 45.5 °F 30 in Calm     78% 0 in 0 W/m2
05:43 52 °F 45.3 °F 30 in South 0.9 mph 2 mph 78% 0 in 0 W/m2
05:48 52 °F 45.3 °F 30 in Calm     78% 0 in 0 W/m2
05:53 52 °F 45.3 °F 30 in Calm     78% 0 in 0 W/m2
05:58 51.6 °F 45.3 °F 30 in Calm     79% 0 in 0 W/m2
06:03 51.6 °F 45.3 °F 30 in Calm     79% 0 in 0 W/m2
06:08 51.4 °F 45.1 °F 30 in Calm     79% 0 in 0 W/m2
06:13 51.3 °F 45 °F 30 in Calm     79% 0 in 0 W/m2
06:18 51.1 °F 44.8 °F 30 in Calm     79% 0 in 0 W/m2
06:23 51.1 °F 45.1 °F 30 in Calm     80% 0 in 0 W/m2
06:28 50.9 °F 45 °F 30 in Calm     80% 0 in 0 W/m2
06:33 50.7 °F 44.8 °F 30 in Calm   1 mph 80% 0 in 0 W/m2
06:38 50.5 °F 45 °F 30 in Calm   1 mph 81% 0 in 0 W/m2
06:43 50.5 °F 45 °F 30 in Calm     81% 0 in 0 W/m2
06:48 50.4 °F 44.8 °F 30 in Calm   1 mph 81% 0 in 0 W/m2
06:53 50.4 °F 44.8 °F 30 in Calm   1 mph 81% 0 in 0 W/m2
06:58 50.4 °F 44.8 °F 30 in South 0.9 mph 1 mph 81% 0 in 0 W/m2
07:03 50.4 °F 44.8 °F 30 in Calm     81% 0 in 0 W/m2
07:08 50.4 °F 45.1 °F 30 in South 0.9 mph 1 mph 82% 0 in 0 W/m2
07:13 50.2 °F 45 °F 30 in South 0.9 mph 2 mph 82% 0 in 0 W/m2
07:18 50.2 °F 45 °F 30 in Calm     82% 0 in 0 W/m2
07:23 50.2 °F 45 °F 30 in Calm     82% 0 in 0 W/m2
07:28 50.2 °F 45 °F 30 in Calm     82% 0 in 7 W/m2
07:33 50 °F 44.8 °F 30 in Calm     82% 0 in 9 W/m2
07:38 50 °F 44.8 °F 30 in Calm     82% 0 in 11 W/m2
07:43 50 °F 44.8 °F 30 in Calm     82% 0 in 12 W/m2
07:48 49.8 °F 44.8 °F 30 in Calm     83% 0 in 14 W/m2
07:53 49.8 °F 44.8 °F 30 in Calm     83% 0 in 14 W/m2
07:58 49.8 °F 44.8 °F 30 in Calm     83% 0 in 16 W/m2
08:03 49.8 °F 44.8 °F 30 in Calm     83% 0 in 18 W/m2
08:08 50 °F 45 °F 30 in Calm     83% 0 in 19 W/m2
08:13 50.2 °F 45.1 °F 30 in Calm     83% 0 in 21 W/m2
08:18 50.2 °F 45.1 °F 30 in Calm     83% 0 in 21 W/m2
08:23 50.4 °F 45.3 °F 30 in Calm     83% 0 in 23 W/m2
08:28 50.5 °F 45.5 °F 30 in Calm     83% 0 in 30 W/m2
08:33 50.7 °F 45.7 °F 30 in Calm     83% 0 in 44 W/m2
08:38 50.9 °F 45.9 °F 30 in Calm     83% 0 in 26 W/m2
08:43 51.3 °F 46.2 °F 30 in Calm     83% 0 in 26 W/m2
08:48 51.4 °F 46.2 °F 30 in Calm     82% 0 in 26 W/m2
08:53 51.8 °F 46.4 °F 30 in Calm     82% 0 in 30 W/m2
08:58 52.2 °F 46.8 °F 30 in Calm     82% 0 in 28 W/m2
09:03 52.5 °F 47.1 °F 30 in Calm     82% 0 in 30 W/m2
09:08 53.2 °F 47.8 °F 30 in Calm     82% 0 in 156 W/m2
09:13 53.8 °F 48 °F 30 in Calm     81% 0 in 47 W/m2
09:18 54.7 °F 48.4 °F 30 in Calm     79% 0 in 33 W/m2
09:23 55.8 °F 47.7 °F 30 in Calm   2 mph 74% 0 in 35 W/m2
09:28 56.8 °F 47.8 °F 30 in East 0.9 mph 1 mph 72% 0 in 35 W/m2
09:33 57.7 °F 47.7 °F 30 in East 2 mph 2 mph 69% 0 in 35 W/m2
09:38 58.6 °F 47.7 °F 30 in Calm   2 mph 67% 0 in 35 W/m2
09:43 59.5 °F 47.8 °F 30 in Calm   3 mph 65% 0 in 37 W/m2
09:48 60.1 °F 48.2 °F 30 in Calm     65% 0 in 37 W/m2
09:53 60.6 °F 48 °F 30 in East 0.9 mph 4 mph 63% 0 in 37 W/m2
09:58 61 °F 48.4 °F 30 in ENE 2 mph 2 mph 63% 0 in 37 W/m2
10:03 61.2 °F 48 °F 30 in East 2.9 mph 4 mph 62% 0 in 39 W/m2
10:08 61.3 °F 47.8 °F 30 in East 2 mph 2 mph 61% 0 in 39 W/m2
10:13 61.7 °F 48.2 °F 30 in ENE 4 mph 4 mph 61% 0 in 39 W/m2
10:18 61.9 °F 47.8 °F 30 in East 0.9 mph 3 mph 60% 0 in 40 W/m2
10:23 62.4 °F 48.4 °F 30 in ESE 0.9 mph 1 mph 60% 0 in 40 W/m2
10:28 63 °F 48.4 °F 30 in ENE 0.9 mph 3 mph 59% 0 in 42 W/m2
10:33 63.3 °F 48.4 °F 30 in ENE 2 mph 3 mph 58% 0 in 42 W/m2
10:38 63.3 °F 48.4 °F 30 in NE 0.9 mph 2 mph 58% 0 in 44 W/m2
10:43 63.5 °F 48.4 °F 30 in East 0.9 mph 1 mph 58% 0 in 46 W/m2
10:48 63.9 °F 48.4 °F 30 in Calm   2 mph 57% 0 in 46 W/m2
10:53 64.2 °F 49.1 °F 30 in Calm   1 mph 58% 0 in 46 W/m2
10:58 64.8 °F 48.7 °F 30 in Calm   3 mph 56% 0 in 46 W/m2
11:03 65.1 °F 48.6 °F 30 in ESE 2 mph 2 mph 55% 0 in 47 W/m2
11:08 65.1 °F 48 °F 30 in ESE 0.9 mph 3 mph 54% 0 in 47 W/m2
11:13 65.7 °F 48.6 °F 30 in ESE 2 mph 2 mph 54% 0 in 49 W/m2
11:18 66 °F 48.9 °F 30 in ENE 0.9 mph 4 mph 54% 0 in 51 W/m2
11:23 66.6 °F 49.5 °F 30 in ESE 2 mph 3 mph 54% 0 in 53 W/m2
11:28 67.3 °F 49.6 °F 30 in East 2.9 mph 4 mph 53% 0 in 54 W/m2
11:33 67.5 °F 49.3 °F 30 in Calm   2 mph 52% 0 in 56 W/m2
11:38 68 °F 49.3 °F 30 in East 2 mph 3 mph 51% 0 in 250 W/m2
11:43 68.5 °F 49.6 °F 30 in Calm   2 mph 51% 0 in 547 W/m2
11:48 68.9 °F 49.5 °F 30 in NNE 0.9 mph 3 mph 50% 0 in 561 W/m2
11:53 69.4 °F 50 °F 30 in SE 0.9 mph 2 mph 50% 0 in 568 W/m2
11:58 70.2 °F 49.6 °F 30 in ENE 0.9 mph 3 mph 48% 0 in 577 W/m2
12:03 70.5 °F 49.8 °F 30 in ENE 2 mph 4 mph 48% 0 in 582 W/m2
12:08 71.1 °F 50.4 °F 30 in ENE 2 mph 2 mph 48% 0 in 591 W/m2
12:13 71.1 °F 49.8 °F 30 in ENE 0.9 mph 3 mph 47% 0 in 599 W/m2
12:18 71.2 °F 50.5 °F 30 in Calm   2 mph 48% 0 in 606 W/m2
12:23 71.8 °F 49.8 °F 30 in SE 0.9 mph 2 mph 46% 0 in 613 W/m2
12:28 72.5 °F 50.5 °F 30 in East 0.9 mph 4 mph 46% 0 in 617 W/m2
12:33 73 °F 50.4 °F 30 in Calm   1 mph 45% 0 in 622 W/m2
12:38 73.6 °F 50.9 °F 30 in ENE 0.9 mph 4 mph 45% 0 in 626 W/m2
12:43 74.1 °F 50.9 °F 30 in ENE 0.9 mph 4 mph 44% 0 in 633 W/m2
12:48 74.7 °F 50.7 °F 30 in ENE 2.9 mph 4 mph 43% 0 in 636 W/m2
12:53 74.7 °F 50 °F 30 in WNW 0.9 mph 2 mph 42% 0 in 642 W/m2
12:58 74.8 °F 50.9 °F 30 in ESE 4 mph 4 mph 43% 0 in 643 W/m2
13:03 75 °F 51.1 °F 30 in Calm   2 mph 43% 0 in 647 W/m2
13:08 75.6 °F 50.9 °F 30 in Calm   2 mph 42% 0 in 645 W/m2
13:13 75.6 °F 50.2 °F 30 in NNE 4 mph 5 mph 41% 0 in 645 W/m2
13:18 75.4 °F 50 °F 30 in Calm   3 mph 41% 0 in 645 W/m2
13:23 75.4 °F 50 °F 30 in North 5 mph 5 mph 41% 0 in 642 W/m2
13:28 75.6 °F 50.2 °F 29.9 in Calm   1 mph 41% 0 in 649 W/m2
13:33 75.9 °F 50.5 °F 29.9 in Calm   1 mph 41% 0 in 656 W/m2
13:38 76.5 °F 51.1 °F 29.9 in NE 0.9 mph 3 mph 41% 0 in 661 W/m2
13:44 76.5 °F 51.1 °F 29.9 in SSE 0.9 mph 3 mph 41% 0 in 654 W/m2
13:49 76.5 °F 50.4 °F 29.9 in Calm   1 mph 40% 0 in 654 W/m2
13:54 76.8 °F 50.7 °F 29.9 in SE 2 mph 3 mph 40% 0 in 654 W/m2
13:59 76.8 °F 51.3 °F 29.9 in ESE 0.9 mph 3 mph 41% 0 in 649 W/m2
14:04 76.6 °F 50.5 °F 29.9 in East 2 mph 8 mph 40% 0 in 645 W/m2
14:09 76.6 °F 50.5 °F 29.9 in Calm   3 mph 40% 0 in 642 W/m2
14:14 76.6 °F 50.5 °F 29.9 in East 2 mph 8 mph 40% 0 in 640 W/m2
14:19 76.8 °F 50.7 °F 29.9 in ESE 2.9 mph 4 mph 40% 0 in 640 W/m2
14:24 76.8 °F 50.7 °F 29.9 in WSW 2 mph 3 mph 40% 0 in 635 W/m2
14:29 76.6 °F 51.3 °F 29.9 in Calm   4 mph 41% 0 in 635 W/m2
14:34 76.8 °F 51.3 °F 29.9 in SSW 2 mph 2 mph 41% 0 in 633 W/m2
14:39 77 °F 51.4 °F 29.9 in NE 2 mph 4 mph 41% 0 in 629 W/m2
14:44 77.4 °F 50.5 °F 29.9 in Calm   1 mph 39% 0 in 624 W/m2
14:49 77.4 °F 51.8 °F 29.9 in South 0.9 mph 2 mph 41% 0 in 619 W/m2
14:54 77.4 °F 51.1 °F 29.9 in South 0.9 mph 1 mph 40% 0 in 615 W/m2
14:59 77.5 °F 50.5 °F 29.9 in NE 2 mph 2 mph 39% 0 in 612 W/m2
15:04 77.5 °F 51.3 °F 29.9 in ESE 0.9 mph 3 mph 40% 0 in 603 W/m2
15:09 77.7 °F 50.7 °F 29.9 in NW 2 mph 3 mph 39% 0 in 596 W/m2
15:14 77.9 °F 51.6 °F 29.9 in SE 2 mph 3 mph 40% 0 in 591 W/m2
15:19 78.3 °F 50.5 °F 29.9 in SE 2.9 mph 3 mph 38% 0 in 584 W/m2
15:24 78.1 °F 51.1 °F 29.9 in WNW 2 mph 3 mph 39% 0 in 577 W/m2
15:29 77.7 °F 50 °F 29.9 in WNW 0.9 mph 2 mph 38% 0 in 573 W/m2
15:34 78.1 °F 51.1 °F 29.9 in WNW 0.9 mph 2 mph 39% 0 in 564 W/m2
15:39 78.4 °F 50 °F 29.9 in NE 2 mph 4 mph 37% 0 in 554 W/m2
15:44 78.8 °F 50.4 °F 29.9 in Calm   4 mph 37% 0 in 548 W/m2
15:49 79.2 °F 49.1 °F 29.9 in Calm   4 mph 35% 0 in 540 W/m2
15:54 79.2 °F 50.7 °F 29.9 in East 0.9 mph 2 mph 37% 0 in 533 W/m2
15:59 79.2 °F 49.8 °F 29.9 in Calm   2 mph 36% 0 in 526 W/m2
16:04 79.2 °F 50.7 °F 29.9 in Calm   2 mph 37% 0 in 515 W/m2
16:09 79.2 °F 49.1 °F 29.9 in NW 2 mph 6 mph 35% 0 in 504 W/m2
16:14 79.2 °F 49.1 °F 29.9 in South 0.9 mph 4 mph 35% 0 in 499 W/m2
16:19 79.2 °F 49.8 °F 29.9 in WSW 2 mph 2 mph 36% 0 in 492 W/m2
16:24 79.3 °F 50 °F 29.9 in West 2 mph 4 mph 36% 0 in 480 W/m2
16:29 79.3 °F 49.3 °F 29.9 in NW 2 mph 4 mph 35% 0 in 468 W/m2
16:34 79.3 °F 49.3 °F 29.9 in WNW 0.9 mph 3 mph 35% 0 in 455 W/m2
16:39 79.7 °F 50.4 °F 29.9 in ENE 4 mph 4 mph 36% 0 in 445 W/m2
16:44 79.9 °F 48.2 °F 29.9 in WSW 2 mph 6 mph 33% 0 in 434 W/m2
16:49 79.5 °F 49.5 °F 29.9 in Calm   2 mph 35% 0 in 422 W/m2
16:54 79.7 °F 48.9 °F 29.9 in NW 2 mph 3 mph 34% 0 in 413 W/m2
16:59 79.7 °F 48.9 °F 29.9 in East 0.9 mph 3 mph 34% 0 in 364 W/m2
17:04 79.9 °F 48.9 °F 29.9 in Calm   1 mph 34% 0 in 357 W/m2
17:09 80.4 °F 50.2 °F 29.9 in Calm     35% 0 in 374 W/m2
17:14 80.2 °F 50.2 °F 29.9 in NE 2.9 mph 6 mph 35% 0 in 362 W/m2
17:19 80.1 °F 50 °F 29.9 in SE 0.9 mph 2 mph 35% 0 in 346 W/m2
17:24 79.9 °F 48.9 °F 29.9 in SE 0.9 mph 4 mph 34% 0 in 334 W/m2
17:29 79.3 °F 49.3 °F 29.9 in East 2 mph 3 mph 35% 0 in 318 W/m2
17:34 79.3 °F 50.7 °F 29.9 in South 2 mph 4 mph 37% 0 in 306 W/m2
17:39 79.3 °F 50 °F 29.9 in Calm   1 mph 36% 0 in 292 W/m2
17:44 79.5 °F 50.9 °F 29.9 in Calm   2 mph 37% 0 in 276 W/m2
17:49 79.5 °F 50.2 °F 29.9 in SSE 0.9 mph 2 mph 36% 0 in 262 W/m2
17:54 79.2 °F 51.4 °F 29.9 in Calm   1 mph 38% 0 in 246 W/m2
17:59 78.6 °F 50.9 °F 29.9 in Calm   2 mph 38% 0 in 230 W/m2
18:04 78.3 °F 50.5 °F 29.9 in East 0.9 mph 1 mph 38% 0 in 54 W/m2
18:09 77.7 °F 50 °F 29.9 in SW 0.9 mph 2 mph 38% 0 in 200 W/m2
18:14 77.5 °F 50 °F 29.9 in SSW 0.9 mph 2 mph 38% 0 in 186 W/m2
18:19 77.2 °F 51.6 °F 29.9 in Calm   1 mph 41% 0 in 172 W/m2
18:24 77.4 °F 51.8 °F 29.9 in SSW 0.9 mph 1 mph 41% 0 in 158 W/m2
18:29 77.2 °F 51.1 °F 29.9 in SSW 0.9 mph 1 mph 40% 0 in 121 W/m2
18:34 76.6 °F 51.3 °F 29.9 in SSW 0.9 mph 2 mph 41% 0 in 86 W/m2
18:39 75.9 °F 51.3 °F 29.9 in SSW 0.9 mph 2 mph 42% 0 in 33 W/m2
18:44 75.4 °F 51.3 °F 29.9 in SSW 0.9 mph 2 mph 43% 0 in 30 W/m2
18:49 74.8 °F 51.4 °F 29.9 in SSW 0.9 mph 2 mph 44% 0 in 26 W/m2
18:54 73.9 °F 51.3 °F 29.9 in SSW 0.9 mph 2 mph 45% 0 in 25 W/m2
18:59 73.2 °F 50.5 °F 29.9 in SSW 2 mph 2 mph 45% 0 in 23 W/m2
19:04 72.7 °F 50.7 °F 29.9 in SSW 2 mph 2 mph 46% 0 in 21 W/m2
19:09 72 °F 50 °F 29.9 in SSW 0.9 mph 2 mph 46% 0 in 19 W/m2
19:14 71.4 °F 50.2 °F 29.9 in SSW 2 mph 2 mph 47% 0 in 16 W/m2
19:19 70.9 °F 50.2 °F 29.9 in Calm   2 mph 48% 0 in 12 W/m2
19:24 70.3 °F 50.4 °F 29.9 in SSW 0.9 mph 2 mph 49% 0 in 11 W/m2
19:29 69.6 °F 49.6 °F 29.9 in SSW 2 mph 2 mph 49% 0 in 7 W/m2
19:34 69.4 °F 50 °F 29.9 in Calm     50% 0 in 5 W/m2
19:39 69.1 °F 50.2 °F 29.9 in Calm   2 mph 51% 0 in 0 W/m2
19:44 68.5 °F 49.6 °F 29.9 in Calm     51% 0 in 0 W/m2
19:49 68.4 °F 49.5 °F 29.9 in Calm   1 mph 51% 0 in 0 W/m2
19:54 67.8 °F 49.6 °F 29.9 in Calm     52% 0 in 0 W/m2
19:59 67.5 °F 49.3 °F 29.9 in Calm   1 mph 52% 0 in 0 W/m2
20:04 67.1 °F 49.5 °F 29.9 in Calm     53% 0 in 0 W/m2
20:09 66.7 °F 49.1 °F 29.9 in Calm   1 mph 53% 0 in 0 W/m2
20:14 66.6 °F 49.5 °F 29.9 in Calm     54% 0 in 0 W/m2
20:19 66.4 °F 49.3 °F 29.9 in Calm   1 mph 54% 0 in 0 W/m2
20:24 66 °F 49.5 °F 29.9 in Calm     55% 0 in 0 W/m2
20:29 65.7 °F 49.5 °F 29.9 in Calm     56% 0 in 0 W/m2
20:34 65.3 °F 49.3 °F 29.9 in Calm     56% 0 in 0 W/m2
20:39 64.9 °F 49.3 °F 29.9 in Calm     57% 0 in 0 W/m2
20:44 64.6 °F 49.5 °F 29.9 in Calm     58% 0 in 0 W/m2
20:49 64.2 °F 49.1 °F 29.9 in Calm     58% 0 in 0 W/m2
20:54 63.9 °F 49.3 °F 29.9 in Calm     59% 0 in 0 W/m2
20:59 63.5 °F 49.3 °F 29.9 in Calm     60% 0 in 0 W/m2
21:05 63.1 °F 49.1 °F 29.9 in Calm     60% 0 in 0 W/m2
21:10 63 °F 48.9 °F 29.9 in Calm     60% 0 in 0 W/m2
21:15 62.8 °F 49.1 °F 29.9 in Calm     61% 0 in 0 W/m2
21:20 62.4 °F 49.3 °F 29.9 in Calm     62% 0 in 0 W/m2
21:25 62.2 °F 49.1 °F 29.9 in Calm     62% 0 in 0 W/m2
21:30 62.1 °F 48.9 °F 29.9 in Calm     62% 0 in 0 W/m2
21:35 61.9 °F 49.1 °F 29.9 in Calm     63% 0 in 0 W/m2
21:40 61.5 °F 48.7 °F 29.9 in Calm     63% 0 in 0 W/m2
21:45 61.3 °F 49.1 °F 29.9 in Calm     64% 0 in 0 W/m2
21:50 61.2 °F 48.9 °F 29.9 in Calm     64% 0 in 0 W/m2
21:55 61 °F 48.7 °F 29.9 in Calm     64% 0 in 0 W/m2
22:00 60.8 °F 48.6 °F 29.9 in Calm     64% 0 in 0 W/m2
22:05 60.6 °F 48.7 °F 29.9 in Calm     65% 0 in 0 W/m2
22:10 60.4 °F 48.6 °F 29.9 in SSW 0.9 mph 1 mph 65% 0 in 0 W/m2
22:15 60.3 °F 48.9 °F 29.9 in Calm     66% 0 in 0 W/m2
22:20 60.3 °F 48.4 °F 29.9 in Calm     65% 0 in 0 W/m2
22:25 60.1 °F 48.7 °F 29.9 in Calm     66% 0 in 0 W/m2
22:30 59.9 °F 48.6 °F 29.9 in Calm     66% 0 in 0 W/m2
22:35 59.7 °F 48.7 °F 29.9 in Calm     67% 0 in 0 W/m2
22:40 59.5 °F 48.6 °F 29.9 in Calm     67% 0 in 0 W/m2
22:45 59.5 °F 48.6 °F 29.9 in Calm     67% 0 in 0 W/m2
22:50 59.4 °F 48.4 °F 29.9 in Calm     67% 0 in 0 W/m2
22:55 59.2 °F 48.2 °F 29.9 in Calm     67% 0 in 0 W/m2
23:00 59.2 °F 48.6 °F 29.9 in Calm     68% 0 in 0 W/m2
23:05 58.8 °F 48.2 °F 29.9 in Calm     68% 0 in 0 W/m2
23:10 58.6 °F 48.2 °F 29.9 in Calm     68% 0 in 0 W/m2
23:15 58.3 °F 48.2 °F 29.9 in Calm     69% 0 in 0 W/m2
23:20 58.1 °F 48.4 °F 29.9 in Calm     70% 0 in 0 W/m2
23:25 57.9 °F 48.2 °F 29.9 in Calm     70% 0 in 0 W/m2
23:30 57.7 °F 48.4 °F 29.9 in Calm     71% 0 in 0 W/m2
23:35 57.6 °F 48.2 °F 29.9 in Calm     71% 0 in 0 W/m2
Juneau County Weather
Compliments of Weather Underground - 4 mb